{"data":{"norad_id":62020,"epoch":"2026-09-21T21:06:10.711296Z","epoch_age_seconds":66371,"freshness":"FRESH","line1":"1 62020U 24213N   26264.87929064  .00215056  00000+0  17251-2 0  9993","line2":"2 62020  53.1567 153.7746 0000509 121.9433 238.1634 15.69838810105731","mean_motion":15.6983881,"eccentricity":5.09e-5,"inclination_deg":53.1567,"raan_deg":153.7746,"arg_perigee_deg":121.9433,"mean_anomaly_deg":238.1634,"bstar":0.0017251,"rev_number":10573,"period_min":91.72916294508,"perigee_km":359.01523220595,"apogee_km":359.70110921433,"semimajor_km":6737.4951707101,"source":"CELESTRAK","updated_at":"2026-09-22T09:00:49.484587Z"}}